Year,Month,Day,Hour,Minute,Value (Times are PST for temperature in C)
2019,06,08,00,00,12.90
2019,06,08,00,01,12.90
2019,06,08,00,02,12.90
2019,06,08,00,03,12.90
2019,06,08,00,04,12.90
2019,06,08,00,05,12.90
2019,06,08,00,06,12.90
2019,06,08,00,07,13.00
2019,06,08,00,08,13.00
2019,06,08,00,09,13.00
2019,06,08,00,10,13.00
2019,06,08,00,11,13.10
2019,06,08,00,12,13.10
2019,06,08,00,13,13.10
2019,06,08,00,14,13.10
2019,06,08,00,15,13.10
2019,06,08,00,16,13.10
2019,06,08,00,17,13.10
2019,06,08,00,18,13.20
2019,06,08,00,19,13.20
2019,06,08,00,20,13.20
2019,06,08,00,21,13.20
2019,06,08,00,22,13.20
2019,06,08,00,23,13.10
2019,06,08,00,24,13.10
2019,06,08,00,25,13.10
2019,06,08,00,26,13.10
2019,06,08,00,27,13.10
2019,06,08,00,28,13.10
2019,06,08,00,29,13.00
2019,06,08,00,30,13.00
2019,06,08,00,31,12.90
2019,06,08,00,32,12.90
2019,06,08,00,33,12.90
2019,06,08,00,34,12.90
2019,06,08,00,35,12.90
2019,06,08,00,36,12.90
2019,06,08,00,37,12.90
2019,06,08,00,38,12.90
2019,06,08,00,39,12.90
2019,06,08,00,40,12.90
2019,06,08,00,41,12.90
2019,06,08,00,42,12.90
2019,06,08,00,43,12.90
2019,06,08,00,44,12.90
2019,06,08,00,45,12.90
2019,06,08,00,46,12.80
2019,06,08,00,47,12.80
2019,06,08,00,48,12.80
2019,06,08,00,49,12.80
2019,06,08,00,50,12.80
2019,06,08,00,51,12.80
2019,06,08,00,52,12.80
2019,06,08,00,53,12.70
2019,06,08,00,54,12.70
2019,06,08,00,55,12.80
2019,06,08,00,56,12.70
2019,06,08,00,57,12.70
2019,06,08,00,58,12.70
2019,06,08,00,59,12.70
2019,06,08,01,00,12.70
2019,06,08,01,01,12.70
2019,06,08,01,02,12.70
2019,06,08,01,03,12.70
2019,06,08,01,04,12.70
2019,06,08,01,05,12.70
2019,06,08,01,06,12.70
2019,06,08,01,07,12.70
2019,06,08,01,08,12.70
2019,06,08,01,09,12.70
2019,06,08,01,10,12.70
2019,06,08,01,11,12.70
2019,06,08,01,12,12.70
2019,06,08,01,13,12.70
2019,06,08,01,14,12.70
2019,06,08,01,15,12.70
2019,06,08,01,16,12.70
2019,06,08,01,17,12.70
2019,06,08,01,18,12.70
2019,06,08,01,19,12.70
2019,06,08,01,20,12.60
2019,06,08,01,21,12.60
2019,06,08,01,22,12.60
2019,06,08,01,23,12.50
2019,06,08,01,24,12.50
2019,06,08,01,25,12.50
2019,06,08,01,26,12.50
2019,06,08,01,27,12.50
2019,06,08,01,28,12.50
2019,06,08,01,29,12.50
2019,06,08,01,30,12.50
2019,06,08,01,31,12.50
2019,06,08,01,32,12.50
2019,06,08,01,33,12.50
2019,06,08,01,34,12.50
2019,06,08,01,35,12.50
2019,06,08,01,36,12.60
2019,06,08,01,37,12.60
2019,06,08,01,38,12.60
2019,06,08,01,39,12.60
2019,06,08,01,40,12.60
2019,06,08,01,41,12.60
2019,06,08,01,42,12.60
2019,06,08,01,43,12.70
2019,06,08,01,44,12.70
2019,06,08,01,45,12.70
2019,06,08,01,46,12.80
2019,06,08,01,47,12.80
2019,06,08,01,48,12.90
2019,06,08,01,49,12.90
2019,06,08,01,50,12.90
2019,06,08,01,51,12.90
2019,06,08,01,52,12.90
2019,06,08,01,53,13.00
2019,06,08,01,54,13.00
2019,06,08,01,55,13.00
2019,06,08,01,56,13.00
2019,06,08,01,57,13.00
2019,06,08,01,58,13.00
2019,06,08,01,59,13.00
2019,06,08,02,00,13.00
2019,06,08,02,01,12.90
2019,06,08,02,02,12.90
2019,06,08,02,03,12.90
2019,06,08,02,04,12.80
2019,06,08,02,05,12.70
2019,06,08,02,06,12.70
2019,06,08,02,07,12.60
2019,06,08,02,08,12.50
2019,06,08,02,09,12.40
2019,06,08,02,10,12.40
2019,06,08,02,11,12.30
2019,06,08,02,12,12.30
2019,06,08,02,13,12.30
2019,06,08,02,14,12.20
2019,06,08,02,15,12.20
2019,06,08,02,16,12.20
2019,06,08,02,17,12.10
2019,06,08,02,18,12.10
2019,06,08,02,19,12.10
2019,06,08,02,20,12.10
2019,06,08,02,21,12.10
2019,06,08,02,22,12.00
2019,06,08,02,23,12.00
2019,06,08,02,24,11.90
2019,06,08,02,25,11.90
2019,06,08,02,26,11.80
2019,06,08,02,27,11.80
2019,06,08,02,28,11.80
2019,06,08,02,29,11.70
2019,06,08,02,30,11.70
2019,06,08,02,31,11.70
2019,06,08,02,32,11.60
2019,06,08,02,33,11.60
2019,06,08,02,34,11.60
2019,06,08,02,35,11.60
2019,06,08,02,36,11.60
2019,06,08,02,37,11.60
2019,06,08,02,38,11.50
2019,06,08,02,39,11.50
2019,06,08,02,40,11.50
2019,06,08,02,41,11.50
2019,06,08,02,42,11.50
2019,06,08,02,43,11.50
2019,06,08,02,44,11.50
2019,06,08,02,45,11.50
2019,06,08,02,46,11.50
2019,06,08,02,47,11.50
2019,06,08,02,48,11.50
2019,06,08,02,49,11.50
2019,06,08,02,50,11.50
2019,06,08,02,51,11.50
2019,06,08,02,52,11.50
2019,06,08,02,53,11.40
2019,06,08,02,54,11.40
2019,06,08,02,55,11.40
2019,06,08,02,56,11.40
2019,06,08,02,57,11.40
2019,06,08,02,58,11.40
2019,06,08,02,59,11.30
2019,06,08,03,00,11.30
2019,06,08,03,01,11.30
2019,06,08,03,02,11.30
2019,06,08,03,03,11.30
2019,06,08,03,04,11.30
2019,06,08,03,05,11.30
2019,06,08,03,06,11.30
2019,06,08,03,07,11.30
2019,06,08,03,08,11.30
2019,06,08,03,09,11.30
2019,06,08,03,10,11.30
2019,06,08,03,11,11.30
2019,06,08,03,12,11.30
2019,06,08,03,13,11.30
2019,06,08,03,14,11.30
2019,06,08,03,15,11.30
2019,06,08,03,16,11.30
2019,06,08,03,17,11.30
2019,06,08,03,18,11.30
2019,06,08,03,19,11.30
2019,06,08,03,20,11.30
2019,06,08,03,21,11.30
2019,06,08,03,22,11.30
2019,06,08,03,23,11.30
2019,06,08,03,24,11.30
2019,06,08,03,25,11.30
2019,06,08,03,26,11.30
2019,06,08,03,27,11.30
2019,06,08,03,28,11.30
2019,06,08,03,29,11.30
2019,06,08,03,30,11.30
2019,06,08,03,31,11.20
2019,06,08,03,32,11.20
2019,06,08,03,33,11.20
2019,06,08,03,34,11.20
2019,06,08,03,35,11.20
2019,06,08,03,36,11.20
2019,06,08,03,37,11.20
2019,06,08,03,38,11.20
2019,06,08,03,39,11.20
2019,06,08,03,40,11.10
2019,06,08,03,41,11.10
2019,06,08,03,42,11.10
2019,06,08,03,43,11.10
2019,06,08,03,44,11.10
2019,06,08,03,45,11.10
2019,06,08,03,46,11.10
2019,06,08,03,47,11.10
2019,06,08,03,48,11.10
2019,06,08,03,49,11.10
2019,06,08,03,50,11.10
2019,06,08,03,51,11.10
2019,06,08,03,52,11.10
2019,06,08,03,53,11.10
2019,06,08,03,54,11.10
2019,06,08,03,55,11.00
2019,06,08,03,56,11.00
2019,06,08,03,57,11.00
2019,06,08,03,58,11.00
2019,06,08,03,59,11.00
2019,06,08,04,00,11.00
2019,06,08,04,01,11.00
2019,06,08,04,02,11.00
2019,06,08,04,03,11.00
2019,06,08,04,04,11.00
2019,06,08,04,05,11.00
2019,06,08,04,06,11.00
2019,06,08,04,07,11.00
2019,06,08,04,08,11.00
2019,06,08,04,09,11.00
2019,06,08,04,10,11.00
2019,06,08,04,11,11.00
2019,06,08,04,12,11.00
2019,06,08,04,13,11.00
2019,06,08,04,14,11.00
2019,06,08,04,15,11.00
2019,06,08,04,16,11.00
2019,06,08,04,17,10.90
2019,06,08,04,18,10.90
2019,06,08,04,19,10.90
2019,06,08,04,20,10.90
2019,06,08,04,21,10.90
2019,06,08,04,22,10.90
2019,06,08,04,23,10.90
2019,06,08,04,24,10.80
2019,06,08,04,25,10.90
2019,06,08,04,26,10.80
2019,06,08,04,27,10.80
2019,06,08,04,28,10.80
2019,06,08,04,29,10.80
2019,06,08,04,30,10.80
2019,06,08,04,31,10.80
2019,06,08,04,32,10.80
2019,06,08,04,33,10.80
2019,06,08,04,34,10.80
2019,06,08,04,35,10.80
2019,06,08,04,36,10.70
2019,06,08,04,37,10.70
2019,06,08,04,38,10.70
2019,06,08,04,39,10.70
2019,06,08,04,40,10.70
2019,06,08,04,41,10.70
2019,06,08,04,42,10.70
2019,06,08,04,43,10.70
2019,06,08,04,44,10.70
2019,06,08,04,45,10.70
2019,06,08,04,46,10.70
2019,06,08,04,47,10.70
2019,06,08,04,48,10.70
2019,06,08,04,49,10.60
2019,06,08,04,50,10.60
2019,06,08,04,51,10.60
2019,06,08,04,52,10.60
2019,06,08,04,53,10.60
2019,06,08,04,54,10.60
2019,06,08,04,55,10.60
2019,06,08,04,56,10.60
2019,06,08,04,57,10.60
2019,06,08,04,58,10.60
2019,06,08,04,59,10.60
2019,06,08,05,00,10.60
2019,06,08,05,01,10.60
2019,06,08,05,02,10.60
2019,06,08,05,03,10.60
2019,06,08,05,04,10.60
2019,06,08,05,05,10.50
2019,06,08,05,06,10.50
2019,06,08,05,07,10.50
2019,06,08,05,08,10.50
2019,06,08,05,09,10.50
2019,06,08,05,10,10.40
2019,06,08,05,11,10.40
2019,06,08,05,12,10.40
2019,06,08,05,13,10.40
2019,06,08,05,14,10.40
2019,06,08,05,15,10.40
2019,06,08,05,16,10.40
2019,06,08,05,17,10.40
2019,06,08,05,18,10.30
2019,06,08,05,19,10.30
2019,06,08,05,20,10.30
2019,06,08,05,21,10.30
2019,06,08,05,22,10.30
2019,06,08,05,23,10.30
2019,06,08,05,24,10.30
2019,06,08,05,25,10.30
2019,06,08,05,26,10.30
2019,06,08,05,27,10.30
2019,06,08,05,28,10.30
2019,06,08,05,29,10.30
2019,06,08,05,30,10.30
2019,06,08,05,31,10.30
2019,06,08,05,32,10.40
2019,06,08,05,33,10.40
2019,06,08,05,34,10.40
2019,06,08,05,35,10.40
2019,06,08,05,36,10.40
2019,06,08,05,37,10.40
2019,06,08,05,38,10.40
2019,06,08,05,39,10.40
2019,06,08,05,40,10.40
2019,06,08,05,41,10.40
2019,06,08,05,42,10.40
2019,06,08,05,43,10.40
2019,06,08,05,44,10.40
2019,06,08,05,45,10.40
2019,06,08,05,46,10.40
2019,06,08,05,47,10.40
2019,06,08,05,48,10.40
2019,06,08,05,49,10.40
2019,06,08,05,50,10.40
2019,06,08,05,51,10.40
2019,06,08,05,52,10.40
2019,06,08,05,53,10.40
2019,06,08,05,54,10.40
2019,06,08,05,55,10.40
2019,06,08,05,56,10.40
2019,06,08,05,57,10.40
2019,06,08,05,58,10.40
2019,06,08,05,59,10.40
2019,06,08,06,00,10.40
2019,06,08,06,01,10.40
2019,06,08,06,02,10.40
2019,06,08,06,03,10.40
2019,06,08,06,04,10.40
2019,06,08,06,05,10.40
2019,06,08,06,06,10.40
2019,06,08,06,07,10.40
2019,06,08,06,08,10.40
2019,06,08,06,09,10.40
2019,06,08,06,10,10.40
2019,06,08,06,11,10.40
2019,06,08,06,12,10.40
2019,06,08,06,13,10.40
2019,06,08,06,14,10.40
2019,06,08,06,15,10.40
2019,06,08,06,16,10.40
2019,06,08,06,17,10.40
2019,06,08,06,18,10.50
2019,06,08,06,19,10.50
2019,06,08,06,20,10.50
2019,06,08,06,21,10.50
2019,06,08,06,22,10.50
2019,06,08,06,23,10.50
2019,06,08,06,24,10.50
2019,06,08,06,25,10.60
2019,06,08,06,26,10.60
2019,06,08,06,27,10.60
2019,06,08,06,28,10.60
2019,06,08,06,29,10.60
2019,06,08,06,30,10.60
2019,06,08,06,31,10.70
2019,06,08,06,32,10.70
2019,06,08,06,33,10.70
2019,06,08,06,34,10.70
2019,06,08,06,35,10.70
2019,06,08,06,36,10.80
2019,06,08,06,37,10.80
2019,06,08,06,38,10.70
2019,06,08,06,39,10.80
2019,06,08,06,40,10.80
2019,06,08,06,41,10.80
2019,06,08,06,42,10.80
2019,06,08,06,43,10.80
2019,06,08,06,44,10.80
2019,06,08,06,45,10.80
2019,06,08,06,46,10.80
2019,06,08,06,47,10.80
2019,06,08,06,48,10.90
2019,06,08,06,49,10.90
2019,06,08,06,50,10.90
2019,06,08,06,51,10.90
2019,06,08,06,52,10.90
2019,06,08,06,53,10.90
2019,06,08,06,54,10.90
2019,06,08,06,55,10.90
2019,06,08,06,56,11.00
2019,06,08,06,57,10.90
2019,06,08,06,58,10.90
2019,06,08,06,59,10.90
2019,06,08,07,00,11.00
2019,06,08,07,01,11.00
2019,06,08,07,02,11.00
2019,06,08,07,03,11.00
2019,06,08,07,04,11.00
2019,06,08,07,05,11.00
2019,06,08,07,06,11.00
2019,06,08,07,07,11.10
2019,06,08,07,08,11.10
2019,06,08,07,09,11.10
2019,06,08,07,10,11.20
2019,06,08,07,11,11.30
2019,06,08,07,12,11.30
2019,06,08,07,13,11.40
2019,06,08,07,14,11.40
2019,06,08,07,15,11.40
2019,06,08,07,16,11.50
2019,06,08,07,17,11.50
2019,06,08,07,18,11.60
2019,06,08,07,19,11.60
2019,06,08,07,20,11.60
2019,06,08,07,21,11.70
2019,06,08,07,22,11.70
2019,06,08,07,23,11.80
2019,06,08,07,24,11.80
2019,06,08,07,25,11.80
2019,06,08,07,26,11.90
2019,06,08,07,27,11.90
2019,06,08,07,28,11.90
2019,06,08,07,29,11.90
2019,06,08,07,30,12.00
2019,06,08,07,31,12.00
2019,06,08,07,32,12.00
2019,06,08,07,33,12.10
2019,06,08,07,34,12.10
2019,06,08,07,35,12.10
2019,06,08,07,36,12.10
2019,06,08,07,37,12.20
2019,06,08,07,38,12.20
2019,06,08,07,39,12.20
2019,06,08,07,40,12.20
2019,06,08,07,41,12.20
2019,06,08,07,42,12.20
2019,06,08,07,43,12.20
2019,06,08,07,44,12.30
2019,06,08,07,45,12.30
2019,06,08,07,46,12.30
2019,06,08,07,47,12.30
2019,06,08,07,48,12.30
2019,06,08,07,49,12.40
2019,06,08,07,50,12.40
2019,06,08,07,51,12.40
2019,06,08,07,52,12.40
2019,06,08,07,53,12.40
2019,06,08,07,54,12.40
2019,06,08,07,55,12.50
2019,06,08,07,56,12.50
2019,06,08,07,57,12.50
2019,06,08,07,58,12.50
2019,06,08,07,59,12.50
2019,06,08,08,00,12.50
2019,06,08,08,01,12.50
2019,06,08,08,02,12.50
2019,06,08,08,03,12.60
2019,06,08,08,04,12.60
2019,06,08,08,05,12.60
2019,06,08,08,06,12.60
2019,06,08,08,07,12.60
2019,06,08,08,08,12.60
2019,06,08,08,09,12.60
2019,06,08,08,10,12.60
2019,06,08,08,11,12.60
2019,06,08,08,12,12.60
2019,06,08,08,13,12.60
2019,06,08,08,14,12.60
2019,06,08,08,15,12.60
2019,06,08,08,16,12.60
2019,06,08,08,17,12.70
2019,06,08,08,18,12.70
2019,06,08,08,19,12.70
2019,06,08,08,20,12.70
2019,06,08,08,21,12.70
2019,06,08,08,22,12.80
2019,06,08,08,23,12.80
2019,06,08,08,24,12.80
2019,06,08,08,25,12.80
2019,06,08,08,26,12.80
2019,06,08,08,27,12.80
2019,06,08,08,28,12.80
2019,06,08,08,29,12.80
2019,06,08,08,30,12.80
2019,06,08,08,31,12.90
2019,06,08,08,32,12.90
2019,06,08,08,33,12.90
2019,06,08,08,34,12.90
2019,06,08,08,35,12.90
2019,06,08,08,36,13.00
2019,06,08,08,37,13.00
2019,06,08,08,38,13.00
2019,06,08,08,39,13.00
2019,06,08,08,40,13.10
2019,06,08,08,41,13.10
2019,06,08,08,42,13.10
2019,06,08,08,43,13.10
2019,06,08,08,44,13.10
2019,06,08,08,45,13.20
2019,06,08,08,46,13.20
2019,06,08,08,47,13.20
2019,06,08,08,48,13.20
2019,06,08,08,49,13.20
2019,06,08,08,50,13.20
2019,06,08,08,51,13.30
2019,06,08,08,52,13.20
2019,06,08,08,53,13.30
2019,06,08,08,54,13.30
2019,06,08,08,55,13.30
2019,06,08,08,56,13.30
2019,06,08,08,57,13.30
2019,06,08,08,58,13.30
2019,06,08,08,59,13.30
2019,06,08,09,00,13.30
2019,06,08,09,01,13.30
2019,06,08,09,02,13.30
2019,06,08,09,03,13.30
2019,06,08,09,04,13.30
2019,06,08,09,05,13.30
2019,06,08,09,06,13.30
2019,06,08,09,07,13.30
2019,06,08,09,08,13.30
2019,06,08,09,09,13.30
2019,06,08,09,10,13.20
2019,06,08,09,11,13.20
2019,06,08,09,12,13.20
2019,06,08,09,13,13.20
2019,06,08,09,14,13.20
2019,06,08,09,15,13.20
2019,06,08,09,16,13.20
2019,06,08,09,17,13.20
2019,06,08,09,18,13.20
2019,06,08,09,19,13.10
2019,06,08,09,20,13.10
2019,06,08,09,21,13.10
2019,06,08,09,22,13.10
2019,06,08,09,23,13.10
2019,06,08,09,24,13.00
2019,06,08,09,25,13.00
2019,06,08,09,26,13.00
2019,06,08,09,27,13.00
2019,06,08,09,28,13.00
2019,06,08,09,29,13.00
2019,06,08,09,30,13.00
2019,06,08,09,31,13.00
2019,06,08,09,32,13.00
2019,06,08,09,33,13.00
2019,06,08,09,34,13.00
2019,06,08,09,35,13.00
2019,06,08,09,36,13.00
2019,06,08,09,37,13.00
2019,06,08,09,38,13.00
2019,06,08,09,39,13.00
2019,06,08,09,40,13.00
2019,06,08,09,41,13.00
2019,06,08,09,42,13.00
2019,06,08,09,43,13.00
2019,06,08,09,44,13.00
2019,06,08,09,45,13.00
2019,06,08,09,46,13.00
2019,06,08,09,47,13.10
2019,06,08,09,48,13.10
2019,06,08,09,49,13.10
2019,06,08,09,50,13.10
2019,06,08,09,51,13.10
2019,06,08,09,52,13.10
2019,06,08,09,53,13.20
2019,06,08,09,54,13.20
2019,06,08,09,55,13.20
2019,06,08,09,56,13.20
2019,06,08,09,57,13.20
2019,06,08,09,58,13.30
2019,06,08,09,59,13.30
2019,06,08,10,00,13.30
2019,06,08,10,01,13.30
2019,06,08,10,02,13.30
2019,06,08,10,03,13.30
2019,06,08,10,04,13.30
2019,06,08,10,05,13.30
2019,06,08,10,06,13.30
2019,06,08,10,07,13.30
2019,06,08,10,08,13.30
2019,06,08,10,09,13.30
2019,06,08,10,10,13.30
2019,06,08,10,11,13.40
2019,06,08,10,12,13.40
2019,06,08,10,13,13.40
2019,06,08,10,14,13.50
2019,06,08,10,15,13.60
2019,06,08,10,16,13.60
2019,06,08,10,17,13.70
2019,06,08,10,18,13.70
2019,06,08,10,19,13.80
2019,06,08,10,20,13.80
2019,06,08,10,21,13.80
2019,06,08,10,22,13.90
2019,06,08,10,23,14.00
2019,06,08,10,24,14.00
2019,06,08,10,25,14.00
2019,06,08,10,26,14.10
2019,06,08,10,27,14.20
2019,06,08,10,28,14.20
2019,06,08,10,29,14.30
2019,06,08,10,30,14.30
2019,06,08,10,31,14.30
2019,06,08,10,32,14.40
2019,06,08,10,33,14.40
2019,06,08,10,34,14.40
2019,06,08,10,35,14.40
2019,06,08,10,36,14.40
2019,06,08,10,37,14.40
2019,06,08,10,38,14.50
2019,06,08,10,39,14.50
2019,06,08,10,40,14.50
2019,06,08,10,41,14.50
2019,06,08,10,42,14.50
2019,06,08,10,43,14.60
2019,06,08,10,44,14.60
2019,06,08,10,45,14.60
2019,06,08,10,46,14.60
2019,06,08,10,47,14.60
2019,06,08,10,48,14.60
2019,06,08,10,49,14.70
2019,06,08,10,50,14.70
2019,06,08,10,51,14.70
2019,06,08,10,52,14.70
2019,06,08,10,53,14.70
2019,06,08,10,54,14.70
2019,06,08,10,55,14.80
2019,06,08,10,56,14.80
2019,06,08,10,57,14.80
2019,06,08,10,58,14.80
2019,06,08,10,59,14.80
2019,06,08,11,00,14.90
2019,06,08,11,01,14.90
2019,06,08,11,02,14.90
2019,06,08,11,03,14.90
2019,06,08,11,04,14.90
2019,06,08,11,05,14.80
2019,06,08,11,06,14.80
2019,06,08,11,07,14.80
2019,06,08,11,08,14.80
2019,06,08,11,09,14.80
2019,06,08,11,10,14.80
2019,06,08,11,11,14.70
2019,06,08,11,12,14.70
2019,06,08,11,13,14.70
2019,06,08,11,14,14.70
2019,06,08,11,15,14.70
2019,06,08,11,16,14.70
2019,06,08,11,17,14.60
2019,06,08,11,18,14.60
2019,06,08,11,19,14.60
2019,06,08,11,20,14.50
2019,06,08,11,21,14.50
2019,06,08,11,22,14.50
2019,06,08,11,23,14.50
2019,06,08,11,24,14.50
2019,06,08,11,25,14.50
2019,06,08,11,26,14.50
2019,06,08,11,27,14.50
2019,06,08,11,28,14.50
2019,06,08,11,29,14.50
2019,06,08,11,30,14.50
2019,06,08,11,31,14.50
2019,06,08,11,32,14.60
2019,06,08,11,33,14.60
2019,06,08,11,34,14.60
2019,06,08,11,35,14.60
2019,06,08,11,36,14.70
2019,06,08,11,37,14.70
2019,06,08,11,38,14.80
2019,06,08,11,39,14.80
2019,06,08,11,40,14.80
2019,06,08,11,41,14.80
2019,06,08,11,42,14.80
2019,06,08,11,43,14.80
2019,06,08,11,44,14.90
2019,06,08,11,45,14.90
2019,06,08,11,46,14.90
2019,06,08,11,47,14.90
2019,06,08,11,48,15.00
2019,06,08,11,49,15.00
2019,06,08,11,50,15.10
2019,06,08,11,51,15.10
2019,06,08,11,52,15.20
2019,06,08,11,53,15.20
2019,06,08,11,54,15.20
2019,06,08,11,55,15.30
2019,06,08,11,56,15.30
2019,06,08,11,57,15.30
2019,06,08,11,58,15.30
2019,06,08,11,59,15.30
2019,06,08,12,00,15.30
2019,06,08,12,01,15.30
2019,06,08,12,02,15.40
2019,06,08,12,03,15.30
2019,06,08,12,04,15.30
2019,06,08,12,05,15.30
2019,06,08,12,06,15.30
2019,06,08,12,07,15.40
2019,06,08,12,08,15.40
2019,06,08,12,09,15.40
2019,06,08,12,10,15.40
2019,06,08,12,11,15.50
2019,06,08,12,12,15.50
2019,06,08,12,13,15.60
2019,06,08,12,14,15.60
2019,06,08,12,15,15.60
2019,06,08,12,16,15.60
2019,06,08,12,17,15.60
2019,06,08,12,18,15.60
2019,06,08,12,19,15.70
2019,06,08,12,20,15.70
2019,06,08,12,21,15.80
2019,06,08,12,22,15.80
2019,06,08,12,23,15.90
2019,06,08,12,24,15.90
2019,06,08,12,25,15.90
2019,06,08,12,26,15.90
2019,06,08,12,27,15.90
2019,06,08,12,28,15.90
2019,06,08,12,29,16.00
2019,06,08,12,30,16.00
2019,06,08,12,31,16.10
2019,06,08,12,32,16.10
2019,06,08,12,33,16.20
2019,06,08,12,34,16.20
2019,06,08,12,35,16.30
2019,06,08,12,36,16.30
2019,06,08,12,37,16.30
2019,06,08,12,38,16.30
2019,06,08,12,39,16.30
2019,06,08,12,40,16.30
2019,06,08,12,41,16.30
2019,06,08,12,42,16.30
2019,06,08,12,43,16.30
2019,06,08,12,44,16.30
2019,06,08,12,45,16.30
2019,06,08,12,46,16.30
2019,06,08,12,47,16.40
2019,06,08,12,48,16.40
2019,06,08,12,49,16.50
2019,06,08,12,50,16.60
2019,06,08,12,51,16.60
2019,06,08,12,52,16.70
2019,06,08,12,53,16.80
2019,06,08,12,54,16.80
2019,06,08,12,55,16.80
2019,06,08,12,56,16.80
2019,06,08,12,57,16.90
2019,06,08,12,58,16.90
2019,06,08,12,59,16.90
2019,06,08,13,00,16.80
2019,06,08,13,01,16.70
2019,06,08,13,02,16.60
2019,06,08,13,03,16.60
2019,06,08,13,04,16.60
2019,06,08,13,05,16.60
2019,06,08,13,06,16.70
2019,06,08,13,07,16.80
2019,06,08,13,08,16.90
2019,06,08,13,09,17.00
2019,06,08,13,10,17.10
2019,06,08,13,11,17.10
2019,06,08,13,12,17.10
2019,06,08,13,13,17.20
2019,06,08,13,14,17.20
2019,06,08,13,15,17.20
2019,06,08,13,16,17.20
2019,06,08,13,17,17.20
2019,06,08,13,18,17.20
2019,06,08,13,19,17.30
2019,06,08,13,20,17.40
2019,06,08,13,21,17.40
2019,06,08,13,22,17.30
2019,06,08,13,23,17.30
2019,06,08,13,24,17.30
2019,06,08,13,25,17.30
2019,06,08,13,26,17.40
2019,06,08,13,27,17.50
2019,06,08,13,28,17.50
2019,06,08,13,29,17.50
2019,06,08,13,30,17.50
2019,06,08,13,31,17.40
2019,06,08,13,32,17.30
2019,06,08,13,33,17.20
2019,06,08,13,34,17.10
2019,06,08,13,35,17.00
2019,06,08,13,36,16.90
2019,06,08,13,37,16.90
2019,06,08,13,38,16.80
2019,06,08,13,39,16.80
2019,06,08,13,40,16.80
2019,06,08,13,41,16.90
2019,06,08,13,42,17.00
2019,06,08,13,43,17.00
2019,06,08,13,44,17.10
2019,06,08,13,45,17.10
2019,06,08,13,46,17.20
2019,06,08,13,47,17.20
2019,06,08,13,48,17.20
2019,06,08,13,49,17.30
2019,06,08,13,50,17.30
2019,06,08,13,51,17.30
2019,06,08,13,52,17.40
2019,06,08,13,53,17.40
2019,06,08,13,54,17.50
2019,06,08,13,55,17.50
2019,06,08,13,56,17.60
2019,06,08,13,57,17.70
2019,06,08,13,58,17.80
2019,06,08,13,59,17.80
2019,06,08,14,00,17.90
2019,06,08,14,01,18.00
2019,06,08,14,02,18.00
2019,06,08,14,03,18.00
2019,06,08,14,04,18.10
2019,06,08,14,05,18.20
2019,06,08,14,06,18.20
2019,06,08,14,07,18.20
2019,06,08,14,08,18.20
2019,06,08,14,09,18.20
2019,06,08,14,10,18.20
2019,06,08,14,11,18.20
2019,06,08,14,12,18.20
2019,06,08,14,13,18.20
2019,06,08,14,14,18.20
2019,06,08,14,15,18.20
2019,06,08,14,16,18.20
2019,06,08,14,17,18.20
2019,06,08,14,18,18.20
2019,06,08,14,19,18.20
2019,06,08,14,20,18.20
2019,06,08,14,21,18.20
2019,06,08,14,22,18.20
2019,06,08,14,23,18.20
2019,06,08,14,24,18.20
2019,06,08,14,25,18.10
2019,06,08,14,26,18.10
2019,06,08,14,27,18.10
2019,06,08,14,28,18.10
2019,06,08,14,29,18.20
2019,06,08,14,30,18.20
2019,06,08,14,31,18.20
2019,06,08,14,32,18.20
2019,06,08,14,33,18.20
2019,06,08,14,34,18.20
2019,06,08,14,35,18.20
2019,06,08,14,36,18.20
2019,06,08,14,37,18.20
2019,06,08,14,38,18.20
2019,06,08,14,39,18.20
2019,06,08,14,40,18.10
2019,06,08,14,41,18.10
2019,06,08,14,42,18.10
2019,06,08,14,43,18.10
2019,06,08,14,44,18.10
2019,06,08,14,45,18.20
2019,06,08,14,46,18.20
2019,06,08,14,47,18.10
2019,06,08,14,48,18.20
2019,06,08,14,49,18.20
2019,06,08,14,50,18.20
2019,06,08,14,51,18.20
2019,06,08,14,52,18.20
2019,06,08,14,53,18.20
2019,06,08,14,54,18.20
2019,06,08,14,55,18.20
2019,06,08,14,56,18.20
2019,06,08,14,57,18.20
2019,06,08,14,58,18.20
2019,06,08,14,59,18.30
2019,06,08,15,00,18.30
2019,06,08,15,01,18.30
2019,06,08,15,02,18.30
2019,06,08,15,03,18.40
2019,06,08,15,04,18.40
2019,06,08,15,05,18.40
2019,06,08,15,06,18.40
2019,06,08,15,07,18.40
2019,06,08,15,08,18.40
2019,06,08,15,09,18.40
2019,06,08,15,10,18.40
2019,06,08,15,11,18.40
2019,06,08,15,12,18.40
2019,06,08,15,13,18.40
2019,06,08,15,14,18.40
2019,06,08,15,15,18.30
2019,06,08,15,16,18.30
2019,06,08,15,17,18.40
2019,06,08,15,18,18.40
2019,06,08,15,19,18.40
2019,06,08,15,20,18.40
2019,06,08,15,21,18.40
2019,06,08,15,22,18.40
2019,06,08,15,23,18.40
2019,06,08,15,24,18.40
2019,06,08,15,25,18.40
2019,06,08,15,26,18.50
2019,06,08,15,27,18.50
2019,06,08,15,28,18.50
2019,06,08,15,29,18.60
2019,06,08,15,30,18.60
2019,06,08,15,31,18.60
2019,06,08,15,32,18.60
2019,06,08,15,33,18.60
2019,06,08,15,34,18.60
2019,06,08,15,35,18.60
2019,06,08,15,36,18.60
2019,06,08,15,37,18.60
2019,06,08,15,38,18.50
2019,06,08,15,39,18.50
2019,06,08,15,40,18.50
2019,06,08,15,41,18.50
2019,06,08,15,42,18.50
2019,06,08,15,43,18.50
2019,06,08,15,44,18.50
2019,06,08,15,45,18.60
2019,06,08,15,46,18.50
2019,06,08,15,47,18.50
2019,06,08,15,48,18.50
2019,06,08,15,49,18.40
2019,06,08,15,50,18.50
2019,06,08,15,51,18.50
2019,06,08,15,52,18.60
2019,06,08,15,53,18.60
2019,06,08,15,54,18.60
2019,06,08,15,55,18.70
2019,06,08,15,56,18.70
2019,06,08,15,57,18.70
2019,06,08,15,58,18.70
2019,06,08,15,59,18.70
2019,06,08,16,00,18.80
2019,06,08,16,01,18.70
2019,06,08,16,02,18.70
2019,06,08,16,03,18.80
2019,06,08,16,04,18.80
2019,06,08,16,05,18.80
2019,06,08,16,06,18.80
2019,06,08,16,07,18.80
2019,06,08,16,08,18.90
2019,06,08,16,09,18.90
2019,06,08,16,10,18.90
2019,06,08,16,11,19.00
2019,06,08,16,12,19.00
2019,06,08,16,13,19.00
2019,06,08,16,14,19.00
2019,06,08,16,15,19.10
2019,06,08,16,16,19.10
2019,06,08,16,17,19.10
2019,06,08,16,18,19.10
2019,06,08,16,19,19.20
2019,06,08,16,20,19.20
2019,06,08,16,21,19.20
2019,06,08,16,22,19.20
2019,06,08,16,23,19.20
2019,06,08,16,24,19.30
2019,06,08,16,25,19.30
2019,06,08,16,26,19.30
2019,06,08,16,27,19.30
2019,06,08,16,28,19.30
2019,06,08,16,29,19.30
2019,06,08,16,30,19.30
2019,06,08,16,31,19.30
2019,06,08,16,32,19.30
2019,06,08,16,33,19.30
2019,06,08,16,34,19.30
2019,06,08,16,35,19.30
2019,06,08,16,36,19.30
2019,06,08,16,37,19.30
2019,06,08,16,38,19.30
2019,06,08,16,39,19.30
2019,06,08,16,40,19.30
2019,06,08,16,41,19.30
2019,06,08,16,42,19.30
2019,06,08,16,43,19.30
2019,06,08,16,44,19.30
2019,06,08,16,45,19.30
2019,06,08,16,46,19.30
2019,06,08,16,47,19.30
2019,06,08,16,48,19.30
2019,06,08,16,49,19.30
2019,06,08,16,50,19.30
2019,06,08,16,51,19.30
2019,06,08,16,52,19.30
2019,06,08,16,53,19.30
2019,06,08,16,54,19.30
2019,06,08,16,55,19.30
2019,06,08,16,56,19.30
2019,06,08,16,57,19.30
2019,06,08,16,58,19.30
2019,06,08,16,59,19.30
2019,06,08,17,00,19.30
2019,06,08,17,01,19.30
2019,06,08,17,02,19.30
2019,06,08,17,03,19.30
2019,06,08,17,04,19.40
2019,06,08,17,05,19.40
2019,06,08,17,06,19.40
2019,06,08,17,07,19.50
2019,06,08,17,08,19.60
2019,06,08,17,09,19.60
2019,06,08,17,10,19.60
2019,06,08,17,11,19.60
2019,06,08,17,12,19.60
2019,06,08,17,13,19.60
2019,06,08,17,14,19.60
2019,06,08,17,15,19.70
2019,06,08,17,16,19.70
2019,06,08,17,17,19.70
2019,06,08,17,18,19.70
2019,06,08,17,19,19.70